Previsão horária em Abramkovo

Hoje, 18 Maio, Terça-feira

Tempo Temperatura Precipitação Vento Pressão Humidade
00:00 +11°C° 0 mm 1 m/s 761 mmHg 94%
01:00 +11°C° 0 mm 1 m/s 761 mmHg 95%
02:00 +10°C° 0 mm 1 m/s 761 mmHg 95%
03:00 +10°C° 0 mm 1 m/s 761 mmHg 95%
04:00 +10°C° 0 mm 2 m/s 761 mmHg 90%
05:00 +13°C° 0 mm 2 m/s 762 mmHg 84%
06:00 +14°C° 0 mm 2 m/s 762 mmHg 78%
07:00 +22°C° 0 mm 3 m/s 761 mmHg 46%
08:00 +20°C° 0 mm 3 m/s 761 mmHg 51%
09:00 +19°C° 0 mm 3 m/s 762 mmHg 56%
10:00 +20°C° 0 mm 3 m/s 761 mmHg 51%
11:00 +22°C° 0 mm 3 m/s 761 mmHg 46%
12:00 +24°C° 0 mm 3 m/s 761 mmHg 41%
13:00 +25°C° 0 mm 3 m/s 761 mmHg 40%
14:00 +25°C° 0 mm 4 m/s 760 mmHg 39%
15:00 +26°C° 0 mm 4 m/s 760 mmHg 38%
16:00 +25°C° 0 mm 4 m/s 760 mmHg 40%
17:00 +25°C° 0 mm 3 m/s 760 mmHg 43%
18:00 +25°C° 0 mm 3 m/s 759 mmHg 45%
19:00 +22°C° 0 mm 3 m/s 759 mmHg 52%
20:00 +20°C° 0 mm 3 m/s 759 mmHg 58%
21:00 +19°C° 0 mm 3 m/s 759 mmHg 65%
22:00 +18°C° 0 mm 3 m/s 759 mmHg 68%
23:00 +17°C° 0 mm 3 m/s 759 mmHg 72%

Amanhã, 19 Maio, Quarta-feira

Tempo Temperatura Precipitação Vento Pressão Humidade
00:00 +16°C° 0 mm 2 m/s 759 mmHg 75%
01:00 +16°C° 0 mm 2 m/s 759 mmHg 78%
02:00 +15°C° 0 mm 2 m/s 759 mmHg 81%
03:00 +15°C° 0 mm 2 m/s 759 mmHg 83%
04:00 +16°C° 0.3 mm 2 m/s 759 mmHg 81%
05:00 +17°C° 0.3 mm 3 m/s 759 mmHg 79%
06:00 +18°C° 0.3 mm 3 m/s 759 mmHg 77%
07:00 +20°C° 0 mm 3 m/s 759 mmHg 69%
08:00 +21°C° 0 mm 3 m/s 759 mmHg 62%
09:00 +23°C° 0 mm 4 m/s 759 mmHg 55%
10:00 +26°C° 0 mm 4 m/s 759 mmHg 49%
11:00 +28°C° 0 mm 4 m/s 759 mmHg 43%
12:00 +30°C° 0 mm 4 m/s 758 mmHg 37%
13:00 +30°C° 0 mm 4 m/s 758 mmHg 34%
14:00 +32°C° 0 mm 4 m/s 758 mmHg 32%
15:00 +32°C° 0 mm 4 m/s 758 mmHg 29%
16:00 +31°C° 0 mm 3 m/s 758 mmHg 32%
17:00 +30°C° 0 mm 3 m/s 757 mmHg 34%
18:00 +29°C° 0 mm 3 m/s 757 mmHg 37%
19:00 +27°C° 0 mm 3 m/s 757 mmHg 45%
20:00 +25°C° 0 mm 3 m/s 758 mmHg 53%
21:00 +22°C° 0 mm 3 m/s 758 mmHg 62%
22:00 +21°C° 0 mm 3 m/s 758 mmHg 65%
23:00 +19°C° 0 mm 2 m/s 758 mmHg 68%

Depois de amanhã, 20 Maio, Quinta-feira

Tempo Temperatura Precipitação Vento Pressão Humidade
00:00 +18°C° 0 mm 2 m/s 757 mmHg 72%
01:00 +17°C° 0 mm 2 m/s 758 mmHg 74%
02:00 +17°C° 0 mm 2 m/s 758 mmHg 77%
03:00 +16°C° 0 mm 2 m/s 758 mmHg 79%
04:00 +17°C° 0 mm 2 m/s 758 mmHg 75%
05:00 +18°C° 0 mm 3 m/s 758 mmHg 70%
06:00 +19°C° 0 mm 3 m/s 758 mmHg 65%
07:00 +21°C° 0 mm 3 m/s 757 mmHg 58%
08:00 +23°C° 0 mm 4 m/s 757 mmHg 51%
09:00 +26°C° 0 mm 4 m/s 757 mmHg 45%
10:00 +28°C° 0 mm 4 m/s 757 mmHg 40%
11:00 +29°C° 0 mm 4 m/s 756 mmHg 36%
12:00 +32°C° 0 mm 4 m/s 756 mmHg 31%
13:00 +32°C° 0 mm 4 m/s 756 mmHg 29%
14:00 +32°C° 0 mm 5 m/s 756 mmHg 27%
15:00 +33°C° 0 mm 5 m/s 755 mmHg 26%
16:00 +32°C° 0 mm 4 m/s 755 mmHg 28%
17:00 +30°C° 0 mm 4 m/s 755 mmHg 30%
18:00 +30°C° 0 mm 4 m/s 755 mmHg 32%
19:00 +28°C° 0 mm 4 m/s 755 mmHg 38%
20:00 +26°C° 0 mm 4 m/s 755 mmHg 44%
21:00 +23°C° 0 mm 4 m/s 755 mmHg 50%
22:00 +21°C° 0 mm 3 m/s 755 mmHg 54%
23:00 +20°C° 0 mm 3 m/s 755 mmHg 58%

21 Maio, Sexta-feira

Tempo Temperatura Precipitação Vento Pressão Humidade
00:00 +19°C° 0 mm 3 m/s 755 mmHg 62%
01:00 +18°C° 0 mm 3 m/s 755 mmHg 66%
02:00 +17°C° 0 mm 3 m/s 755 mmHg 69%
03:00 +16°C° 0 mm 3 m/s 754 mmHg 72%
04:00 +17°C° 0 mm 3 m/s 754 mmHg 69%
05:00 +18°C° 0 mm 4 m/s 754 mmHg 66%
06:00 +19°C° 0 mm 4 m/s 754 mmHg 63%
07:00 +20°C° 0 mm 5 m/s 753 mmHg 57%
08:00 +22°C° 0 mm 5 m/s 753 mmHg 51%
09:00 +23°C° 0 mm 6 m/s 753 mmHg 46%
10:00 +24°C° 0 mm 6 m/s 752 mmHg 42%
11:00 +24°C° 0 mm 6 m/s 752 mmHg 39%
12:00 +26°C° 0 mm 6 m/s 751 mmHg 36%
13:00 +24°C° 0 mm 6 m/s 751 mmHg 39%
14:00 +24°C° 0 mm 6 m/s 751 mmHg 43%
15:00 +23°C° 0 mm 6 m/s 751 mmHg 46%
16:00 +22°C° 0.1 mm 6 m/s 751 mmHg 51%
17:00 +21°C° 0.1 mm 6 m/s 750 mmHg 55%
18:00 +21°C° 0.1 mm 6 m/s 750 mmHg 60%
19:00 +19°C° 0.1 mm 6 m/s 751 mmHg 63%
20:00 +16°C° 0.1 mm 5 m/s 751 mmHg 66%
21:00 +14°C° 0.1 mm 5 m/s 751 mmHg 69%
22:00 +14°C° 0 mm 5 m/s 751 mmHg 70%
23:00 +13°C° 0 mm 5 m/s 751 mmHg 71%

22 Maio, Sábado

Tempo Temperatura Precipitação Vento Pressão Humidade
00:00 +13°C° 0 mm 5 m/s 751 mmHg 72%
01:00 +12°C° 0.2 mm 5 m/s 752 mmHg 77%
02:00 +12°C° 0.2 mm 5 m/s 752 mmHg 81%
03:00 +10°C° 0.2 mm 5 m/s 752 mmHg 86%
04:00 +10°C° 0.1 mm 5 m/s 753 mmHg 82%
05:00 +9°C° 0.1 mm 5 m/s 754 mmHg 78%
06:00 +9°C° 0.1 mm 5 m/s 755 mmHg 75%
07:00 +10°C° 0 mm 5 m/s 756 mmHg 68%
08:00 +13°C° 0 mm 4 m/s 756 mmHg 61%
09:00 +14°C° 0 mm 4 m/s 756 mmHg 53%
10:00 +15°C° 0 mm 5 m/s 756 mmHg 50%
11:00 +16°C° 0 mm 5 m/s 756 mmHg 47%
12:00 +17°C° 0 mm 5 m/s 756 mmHg 44%
13:00 +16°C° 0.2 mm 5 m/s 757 mmHg 49%
14:00 +15°C° 0.2 mm 5 m/s 757 mmHg 53%
15:00 +15°C° 0.2 mm 5 m/s 757 mmHg 58%
16:00 +13°C° 0.1 mm 5 m/s 748 mmHg 77%
17:00 +12°C° 0.1 mm 4 m/s 749 mmHg 81%
18:00 +11°C° 0.1 mm 4 m/s 749 mmHg 85%
19:00 +11°C° 0.1 mm 4 m/s 749 mmHg 85%
20:00 +11°C° 0.1 mm 4 m/s 750 mmHg 84%
21:00 +10°C° 0.1 mm 4 m/s 750 mmHg 84%
22:00 +10°C° 0.1 mm 4 m/s 750 mmHg 84%
23:00 +10°C° 0.1 mm 4 m/s 751 mmHg 84%

23 Maio, Domingo

Tempo Temperatura Precipitação Vento Pressão Humidade
00:00 +10°C° 0.1 mm 4 m/s 751 mmHg 84%
01:00 +8°C° 0.2 mm 4 m/s 751 mmHg 86%
02:00 +8°C° 0.2 mm 4 m/s 751 mmHg 88%
03:00 +8°C° 0.2 mm 4 m/s 752 mmHg 90%
04:00 +8°C° 0.3 mm 4 m/s 752 mmHg 91%
05:00 +8°C° 0.3 mm 4 m/s 753 mmHg 92%
06:00 +9°C° 0.3 mm 3 m/s 754 mmHg 93%
07:00 +9°C° 0 mm 3 m/s 754 mmHg 92%
08:00 +9°C° 0 mm 3 m/s 755 mmHg 91%
09:00 +9°C° 0 mm 3 m/s 756 mmHg 89%
10:00 +9°C° 0 mm 3 m/s 757 mmHg 85%
11:00 +9°C° 0 mm 3 m/s 758 mmHg 82%
12:00 +10°C° 0 mm 4 m/s 759 mmHg 78%
13:00 +10°C° 0 mm 3 m/s 759 mmHg 74%
14:00 +11°C° 0 mm 3 m/s 760 mmHg 71%
15:00 +11°C° 0 mm 3 m/s 760 mmHg 67%
16:00 +11°C° 0 mm 3 m/s 761 mmHg 67%
17:00 +12°C° 0 mm 2 m/s 761 mmHg 67%
18:00 +12°C° 0 mm 1 m/s 761 mmHg 66%
19:00 +11°C° 0 mm 1 m/s 762 mmHg 68%
20:00 +11°C° 0 mm 1 m/s 762 mmHg 69%
21:00 +9°C° 0 mm 0 m/s 763 mmHg 71%
22:00 +8°C° 0 mm 0 m/s 763 mmHg 75%
23:00 +8°C° 0 mm 1 m/s 763 mmHg 80%
Mostrar mais

Necessitamos do seu Consentimento

A Meteoprog e os seus Fornecedores de Serviços podem armazenar e aceder a dados pessoais como cookies, identificadores do dispositivo ou outras tecnologias semelhantes existentes no seu dispositivo e processar estes dados para personalizar conteúdos e anúncios, assim como funcionalidades nas redes sociais e análise de tráfego.

  • Armazenar e/ou aceder a informações no seu dispositivo

    Os cookies, identificadores do dispositivo ou outras informações podem ser armazenados ou acedidos no seu dispositivo, para os fins acima indicados.

  • Anúncios e conteúdos personalizados, medição de anúncios e conteúdos, dados sobre o público-alvo e desenvolvimento de produtos

    Os anúncios e os conteúdos podem ser personalizados com base num perfil. Podem ser adicionados dados adicionais para uma maior personalização dos anúncios e dos conteúdos. A eficácia dos anúncios e dos conteúdos pode ser medida. Podem ser obtidas informações sobre o público que visualizou os anúncios e os conteúdos. Estes dados podem ser usados para desenvolver ou melhorar sistemas, softwares ou a experiência do utilizador.

Ao clicar em "Eu concordo”, permitirá o uso de cookies, identificadores do dispositivo e web beacons mencionados ou outras tecnologias semelhantes. As configurações do navegador do seu dispositivo podem ser alteradas.

Para certos fins, podem ser invocados interesses legítimos ao invés de consentimento. Pode ler mais informação sobre este assunto na nossa Política de Privacidade e Cookies.